Fergus Falls, MN

10:38 PM CST on November 21, 2019 (GMT -0600)
Fergus Falls Municipal-Mickelson

Weather History for KFFM - September, 2019

Change the Weather History Date:

Saturday, September 21, 2019

  Actual Average Record
Temperature  
Mean Temperature 68 °F -  
Max Temperature 78 °F 64 °F 89 °F (2015)
Min Temperature 59 °F 44 °F 30 °F (1974)
Cooling Degree Days 4    
Growing Degree Days 18 (Base 50)    
Moisture  
Dew Point 63 °F    
Average Humidity 76    
Maximum Humidity 94    
Minimum Humidity 51    
Precipitation  
Precipitation 0.00 in - - ()
Sea Level Pressure  
Sea Level Pressure 29.69 in    
Wind  
Wind Speed 15 mph ()    
Max Wind Speed 22 mph    
Max Gust Speed 31 mph    
Visibility 9.9 miles    
Events Rain , Thunderstorm    
Averages and records for this station are not official NWS values.
T = Trace of Precipitation, MM = Missing Value Source: Averaged Metar Reports

Daily Weather History Graph

Daily Weather History Graph

Search for Another Location

Airport or City:

Astronomy

Sep. 21, 2019 Rise Set
Actual Time 7:10 AM CDT 7:24 PM CDT
Civil Twilight 6:40 AM CDT 7:54 PM CDT
Nautical Twilight 6:04 AM CDT 8:29 PM CDT
Astronomical Twilight 5:28 AM CDT 9:06 PM CDT
Moon 11:40 PM CDT (9/21) 2:39 PM CDT (9/21)
Length of Visible Light 13h 14m
Length of Day
12h 14m
Waning Gibbous, 54% of the Moon is Illuminated
Sep 21
Waning Gibbous
Sep 21
Last Quarter
Sep 28
New
Oct 5
First Quarter
Oct 13
Full

Hourly Weather History & Observations

Time (CDT) Temp. Dew Point Humidity Pressure Visibility Wind Dir Wind Speed Gust Speed Precip Events Conditions
12:15 AM 75.2 °F 66.2 °F 73% 29.75 in 10.0 mi South 21.9 mph 28.8 mph N/A   Clear
12:19 AM 75.2 °F 66.2 °F 73% 29.75 in 10.0 mi South 19.6 mph 27.6 mph N/A   Clear
12:37 AM 75.2 °F 66.2 °F 73% 29.75 in 10.0 mi South 21.9 mph 28.8 mph N/A   Clear
12:56 AM 75.2 °F 66.2 °F 73% 29.75 in 10.0 mi South 19.6 mph 26.5 mph N/A   Clear
1:15 AM 75.2 °F 66.2 °F 73% 29.75 in 10.0 mi South 19.6 mph 27.6 mph N/A   Clear
1:16 AM 75.2 °F 66.2 °F 73% 29.75 in 10.0 mi South 20.7 mph 27.6 mph N/A   Clear
1:35 AM 75.2 °F 66.2 °F 73% 29.75 in 10.0 mi South 19.6 mph 25.3 mph N/A   Scattered Clouds
1:36 AM 75.2 °F 66.2 °F 73% 29.75 in 10.0 mi South 18.4 mph 25.3 mph N/A   Scattered Clouds
1:59 AM 75.2 °F 66.2 °F 73% 29.74 in 10.0 mi South 18.4 mph 24.2 mph N/A   Scattered Clouds
2:36 AM 73.4 °F 66.2 °F 78% 29.73 in 10.0 mi South 18.4 mph 25.3 mph N/A   Clear
2:55 AM 73.4 °F 66.2 °F 78% 29.72 in 10.0 mi South 16.1 mph 24.2 mph N/A   Scattered Clouds
3:15 AM 73.4 °F 66.2 °F 78% 29.71 in 10.0 mi South 17.3 mph 23.0 mph N/A   Scattered Clouds
3:19 AM 73.4 °F 66.2 °F 78% 29.71 in 10.0 mi South 19.6 mph 23.0 mph N/A   Clear
3:37 AM 73.4 °F 66.2 °F 78% 29.70 in 10.0 mi South 17.3 mph 25.3 mph N/A   Clear
3:56 AM 71.6 °F 66.2 °F 83% 29.69 in 10.0 mi South 15.0 mph - N/A Thunderstorm Scattered Clouds
4:15 AM 71.6 °F 66.2 °F 83% 29.68 in 10.0 mi South 13.8 mph - N/A Thunderstorm Scattered Clouds
4:16 AM 71.6 °F 66.2 °F 83% 29.67 in 10.0 mi South 13.8 mph - N/A Thunderstorm Scattered Clouds
4:35 AM 71.6 °F 66.2 °F 83% 29.66 in 10.0 mi South 16.1 mph - N/A   Clear
4:36 AM 71.6 °F 66.2 °F 83% 29.66 in 10.0 mi South 18.4 mph - N/A   Clear
4:59 AM 71.6 °F 66.2 °F 83% 29.65 in 10.0 mi South 17.3 mph - N/A   Clear
5:16 AM 71.6 °F 66.2 °F 83% 29.66 in 10.0 mi South 18.4 mph 23.0 mph N/A   Mostly Cloudy
5:36 AM 71.6 °F 66.2 °F 83% 29.68 in 10.0 mi South 18.4 mph 23.0 mph N/A   Overcast
5:55 AM 71.6 °F 66.2 °F 83% 29.67 in 10.0 mi South 20.7 mph 25.3 mph N/A   Overcast
6:15 AM 71.6 °F 66.2 °F 83% 29.68 in 10.0 mi South 19.6 mph 26.5 mph N/A   Overcast
6:19 AM 71.6 °F 66.2 °F 83% 29.68 in 10.0 mi South 21.9 mph 28.8 mph N/A   Overcast
6:38 AM 69.8 °F 66.2 °F 88% 29.68 in 10.0 mi SSW 20.7 mph 29.9 mph N/A   Overcast
6:56 AM 69.8 °F 66.2 °F 88% 29.66 in 2.5 mi WSW 8.1 mph 31.1 mph N/A Rain Rain
7:15 AM 69.8 °F 64.4 °F 83% 29.68 in 7.0 mi SSW 9.2 mph - N/A Rain , Thunderstorm Light Thunderstorms and Rain
7:16 AM 69.8 °F 64.4 °F 83% 29.68 in 7.0 mi SSW 9.2 mph - N/A Rain , Thunderstorm Light Thunderstorms and Rain
7:35 AM 68.0 °F 66.2 °F 94% 29.64 in 10.0 mi SE 10.4 mph - N/A Rain Light Rain
7:36 AM 68.0 °F 66.2 °F 94% 29.64 in 10.0 mi SE 10.4 mph - N/A   Scattered Clouds
7:59 AM 69.8 °F 66.2 °F 88% 29.59 in 10.0 mi SSE 15.0 mph 19.6 mph N/A   Clear
8:16 AM 69.8 °F 66.2 °F 88% 29.63 in 10.0 mi WSW 9.2 mph - N/A   Clear
8:36 AM 69.8 °F 66.2 °F 88% 29.65 in 10.0 mi South 11.5 mph - N/A   Clear
8:55 AM 69.8 °F 66.2 °F 88% 29.65 in 10.0 mi South 15.0 mph - N/A   Scattered Clouds
8:56 AM 69.8 °F 66.2 °F 88% 29.65 in 10.0 mi South 15.0 mph - N/A   Scattered Clouds
9:15 AM 69.8 °F 66.2 °F 88% 29.66 in 10.0 mi South 10.4 mph - N/A   Mostly Cloudy
9:19 AM 69.8 °F 68.0 °F 94% 29.66 in 10.0 mi SSW 11.5 mph - N/A   Mostly Cloudy
9:37 AM 69.8 °F 68.0 °F 94% 29.66 in 10.0 mi SSW 10.4 mph - N/A   Overcast
9:55 AM 69.8 °F 68.0 °F 94% 29.65 in 10.0 mi South 11.5 mph - N/A   Overcast
10:15 AM 69.8 °F 68.0 °F 94% 29.65 in 10.0 mi South 12.7 mph - N/A   Overcast
10:16 AM 69.8 °F 68.0 °F 94% 29.64 in 10.0 mi South 11.5 mph - N/A   Overcast
10:35 AM 71.6 °F 68.0 °F 88% 29.63 in 10.0 mi South 15.0 mph - N/A   Mostly Cloudy
10:36 AM 71.6 °F 68.0 °F 88% 29.63 in 10.0 mi South 15.0 mph - N/A   Mostly Cloudy
10:59 AM 73.4 °F 68.0 °F 83% 29.64 in 10.0 mi SSW 16.1 mph - N/A   Mostly Cloudy
11:36 AM 73.4 °F 66.2 °F 78% 29.65 in 10.0 mi SW 13.8 mph - N/A   Mostly Cloudy
11:55 AM 75.2 °F 66.2 °F 73% 29.65 in 10.0 mi SW 15.0 mph - N/A   Mostly Cloudy
12:15 PM 75.2 °F 66.2 °F 73% 29.65 in 10.0 mi WSW 13.8 mph - N/A   Scattered Clouds
12:37 PM 75.2 °F 64.4 °F 69% 29.65 in 10.0 mi WSW 12.7 mph 17.3 mph N/A   Scattered Clouds
12:55 PM 75.2 °F 64.4 °F 69% 29.65 in 10.0 mi WSW 16.1 mph - N/A   Clear
1:15 PM 78.8 °F 64.4 °F 61% 29.65 in 10.0 mi West 15.0 mph 21.9 mph N/A   Scattered Clouds
1:35 PM 77.0 °F 62.6 °F 61% 29.65 in 10.0 mi West 16.1 mph - N/A   Scattered Clouds
1:36 PM 77.0 °F 62.6 °F 61% 29.65 in 10.0 mi West 18.4 mph - N/A   Scattered Clouds
1:58 PM 77.0 °F 62.6 °F 61% 29.66 in 10.0 mi West 16.1 mph - N/A   Clear
2:17 PM 77.0 °F 62.6 °F 61% 29.66 in 10.0 mi WSW 13.8 mph 18.4 mph N/A   Scattered Clouds
2:36 PM 77.0 °F 62.6 °F 61% 29.66 in 10.0 mi West 12.7 mph - N/A   Scattered Clouds
2:55 PM 78.8 °F 62.6 °F 57% 29.66 in 10.0 mi West 12.7 mph - N/A   Clear
2:56 PM 77.0 °F 62.6 °F 61% 29.66 in 10.0 mi West 12.7 mph - N/A   Clear
3:15 PM 75.2 °F 62.6 °F 65% 29.66 in 10.0 mi WSW 11.5 mph - N/A   Scattered Clouds
3:20 PM 77.0 °F 62.6 °F 61% 29.66 in 10.0 mi West 12.7 mph - N/A   Scattered Clouds
3:37 PM 78.8 °F 62.6 °F 57% 29.66 in 10.0 mi West 10.4 mph - N/A   Scattered Clouds
3:55 PM 78.8 °F 60.8 °F 54% 29.66 in 10.0 mi West 13.8 mph 19.6 mph N/A   Clear
4:15 PM 78.8 °F 60.8 °F 54% 29.66 in 10.0 mi West 12.7 mph 17.3 mph N/A   Clear
4:16 PM 78.8 °F 60.8 °F 54% 29.66 in 10.0 mi West 11.5 mph 17.3 mph N/A   Clear
4:35 PM 78.8 °F 60.8 °F 54% 29.66 in 10.0 mi WSW 13.8 mph 17.3 mph N/A   Scattered Clouds
4:36 PM 78.8 °F 60.8 °F 54% 29.66 in 10.0 mi WSW 15.0 mph - N/A   Scattered Clouds
4:58 PM 78.8 °F 60.8 °F 54% 29.66 in 10.0 mi WSW 13.8 mph - N/A   Scattered Clouds
5:17 PM 78.8 °F 60.8 °F 54% 29.66 in 10.0 mi WSW 15.0 mph - N/A   Clear
5:36 PM 78.8 °F 59.0 °F 51% 29.66 in 10.0 mi WSW 13.8 mph 19.6 mph N/A   Clear
5:55 PM 75.2 °F 60.8 °F 61% 29.66 in 10.0 mi WSW 9.2 mph - N/A   Clear
5:56 PM 75.2 °F 60.8 °F 61% 29.66 in 10.0 mi WSW 10.4 mph - N/A   Clear
6:15 PM 75.2 °F 57.2 °F 53% 29.66 in 10.0 mi WSW 16.1 mph 20.7 mph N/A   Scattered Clouds
6:19 PM 75.2 °F 57.2 °F 53% 29.67 in 10.0 mi WSW 18.4 mph 21.9 mph N/A   Scattered Clouds
6:38 PM 73.4 °F 60.8 °F 65% 29.68 in 10.0 mi West 17.3 mph 27.6 mph N/A   Clear
6:55 PM 71.6 °F 60.8 °F 69% 29.70 in 10.0 mi West 17.3 mph 23.0 mph N/A   Clear
7:15 PM 69.8 °F 59.0 °F 68% 29.71 in 10.0 mi West 15.0 mph 24.2 mph N/A   Clear
7:16 PM 69.8 °F 59.0 °F 68% 29.71 in 10.0 mi West 13.8 mph 24.2 mph N/A   Clear
7:36 PM 69.8 °F 59.0 °F 68% 29.72 in 10.0 mi West 10.4 mph - N/A   Clear
7:58 PM 66.2 °F 59.0 °F 78% 29.74 in 10.0 mi WNW 8.1 mph - N/A   Scattered Clouds
8:16 PM 64.4 °F 59.0 °F 83% 29.75 in 10.0 mi West 6.9 mph - N/A   Scattered Clouds
8:35 PM 64.4 °F 60.8 °F 88% 29.76 in 10.0 mi West 8.1 mph - N/A   Scattered Clouds
8:36 PM 64.4 °F 60.8 °F 88% 29.76 in 10.0 mi West 8.1 mph - N/A   Scattered Clouds
8:55 PM 64.4 °F 59.0 °F 83% 29.77 in 10.0 mi West 5.8 mph - N/A   Scattered Clouds
9:15 PM 64.4 °F 57.2 °F 77% 29.78 in 10.0 mi West 6.9 mph - N/A   Mostly Cloudy
9:19 PM 62.6 °F 57.2 °F 82% 29.78 in 10.0 mi West 5.8 mph - N/A   Mostly Cloudy
9:37 PM 64.4 °F 57.2 °F 77% 29.78 in 10.0 mi West 6.9 mph - N/A   Mostly Cloudy
9:56 PM 62.6 °F 57.2 °F 82% 29.78 in 10.0 mi West 6.9 mph - N/A   Scattered Clouds
10:15 PM 62.6 °F 57.2 °F 82% 29.79 in 10.0 mi WSW 6.9 mph - N/A   Mostly Cloudy
10:35 PM 62.6 °F 57.2 °F 82% 29.79 in 10.0 mi WSW 8.1 mph - N/A   Mostly Cloudy
10:36 PM 62.6 °F 57.2 °F 82% 29.79 in 10.0 mi WSW 6.9 mph - N/A   Mostly Cloudy
10:58 PM 60.8 °F 57.2 °F 88% 29.79 in 10.0 mi West 6.9 mph - N/A   Scattered Clouds
11:17 PM 60.8 °F 55.4 °F 82% 29.80 in 10.0 mi West 5.8 mph - N/A   Scattered Clouds
11:36 PM 59.0 °F 55.4 °F 88% 29.80 in 10.0 mi West 5.8 mph - N/A   Clear
11:55 PM 59.0 °F 55.4 °F 88% 29.80 in 10.0 mi West 5.8 mph - N/A   Scattered Clouds
11:56 PM 59.0 °F 55.4 °F 88% 29.80 in 10.0 mi West 5.8 mph - N/A   Scattered Clouds